Tracking 19176 objects as of 27-May-2018
HD Live streaming from Space Station
objects crossing your sky now

LANDSAT 3

Track LANDSAT 3 now!
10-day predictions
LANDSAT 3 is classified as:


NORAD ID: 10702
Int'l Code: 1978-026A
Perigee: 902.1 km
Apogee: 923.0 km
Inclination: 98.8 °
Period: 103.1 minutes
Semi major axis: 7283 km
RCS: 3.0427 m2 (large)
Launch date: March 5, 1978
Source: United States (US)
Launch site: AIR FORCE WESTERN TEST RANGE (AFWTR)
aabbcc
Your satellite tracking list
Your tracking list is empty




NASA's NSSDC Master Catalog

Two Line Element Set (TLE):
1 10702U 78026A   18146.96990057 -.00000008 +00000-0 +23823-4 0  9999
2 10702 098.7564 164.3455 0014333 348.8335 067.0450 13.96663324050603
Source of the keplerian elements: AFSPC